Location: Hill Town
(35.7703°N, 87.1321°W)
Time: 08:09:49
(UTC-06:00)

Tiangong 2 - Visible Passes

Search period start: 16 November 2018 00:00
Search period end: 26 November 2018 00:00
Orbit: 382 x 393 km, 42.8° (Epoch: 15 November)

Date Brightness Start Highest point End Pass type
(mag) Time Alt. Az. Time Alt. Az. Time Alt. Az.
22 Nov 3.5 05:53:51 10° SSW 05:56:30 24° SE 05:59:12 10° E visible
23 Nov 4.2 04:56:31 10° S 04:58:05 13° SE 04:59:41 10° ESE visible
24 Nov 2.0 05:32:53 10° SW 05:35:57 49° SSE 05:39:05 10° ENE visible
25 Nov 3.0 04:37:17 26° SSE 04:37:27 26° SE 04:40:11 10° E visible
